contact:dominique.lefevre@mio.osupytheas.fr, maurice.libes@osupytheas.fr, didier.mallarino@osupytheas.fr
Project:EMSO http://www.emso-fr.org/EMSO-France
Depth: 2436.0 m
Title:EMSO Ligure Ouest : Data MII capteur AQUADOPP
Date,Latitude,Longitude,X_East,Y_North,Z_Up,Amplitude_X,Amplitude_Y,Amplitude_Z,Batterie,SoundSpeed,Heading,Pitch,Roll,Pressure,TIS,Speed,Direction
, degrees North, degrees East, m.s-1, m.s-1,m.s-1, 1, 1, 1, Volt, m.s-1, degree, degree, degree, dbar, degree_C, m.s-1, degree
2019-08-10T00:01:42,42.805,6.029,-0.046,0.022,-0.016,101.0,111.0,98.0,13.4,1505.3,322.7,-0.7,1.8,2470.071,13.32,0.05,295.6
2019-08-10T00:04:43,42.805,6.029,-0.058,0.025,0.014,101.0,109.0,100.0,13.3,1505.3,324.2,-0.7,1.8,2470.109,13.33,0.063,293.3
2019-08-10T00:07:44,42.805,6.029,-0.048,0.014,-0.019,100.0,112.0,99.0,13.3,1505.3,327.2,-0.7,1.8,2470.102,13.33,0.05,286.3
2019-08-10T00:10:45,42.805,6.029,-0.016,0.042,-0.002,101.0,110.0,99.0,13.3,1505.3,326.6,-0.7,1.8,2470.115,13.33,0.044,339.1
2019-08-10T00:13:46,42.805,6.029,-0.031,0.04,-0.018,102.0,111.0,98.0,13.3,1505.3,324.5,-0.7,1.8,2470.061,13.33,0.05,322.2
2019-08-10T00:16:47,42.805,6.029,-0.02,0.029,0.014,106.0,109.0,98.0,13.4,1505.3,328.2,-0.7,1.8,2470.125,13.33,0.035,325.4
2019-08-10T00:19:48,42.805,6.029,-0.034,0.043,-0.004,102.0,109.0,99.0,13.4,1505.3,326.1,-0.8,1.8,2470.065,13.33,0.054,321.7
2019-08-10T00:22:49,42.805,6.029,-0.017,0.021,0.042,104.0,108.0,99.0,13.4,1505.3,324.3,-0.7,1.8,2470.093,13.33,0.027,321.0
2019-08-10T00:25:50,42.805,6.029,-0.057,0.018,-0.001,104.0,110.0,99.0,13.3,1505.3,328.4,-0.7,1.8,2470.061,13.33,0.059,287.5
2019-08-10T00:28:51,42.805,6.029,-0.042,0.021,0.005,101.0,109.0,99.0,13.4,1505.3,324.3,-0.7,1.8,2470.088,13.33,0.046,296.6
2019-08-10T00:31:52,42.805,6.029,-0.033,0.021,-0.023,103.0,109.0,98.0,13.3,1505.3,326.5,-0.7,1.8,2470.093,13.33,0.039,302.5
2019-08-10T00:34:53,42.805,6.029,-0.068,0.019,-0.032,101.0,111.0,98.0,13.3,1505.3,325.1,-0.7,1.9,2470.109,13.33,0.07,285.6
2019-08-10T00:37:54,42.805,6.029,-0.022,0.03,-0.02,101.0,112.0,98.0,13.4,1505.3,327.0,-0.7,1.8,2470.06,13.33,0.037,323.7
2019-08-10T00:40:55,42.805,6.029,-0.04,0.036,-0.024,102.0,111.0,100.0,13.3,1505.3,324.4,-0.7,1.8,2470.083,13.33,0.053,312.0
2019-08-10T00:43:56,42.805,6.029,-0.054,0.025,-0.002,102.0,110.0,100.0,13.3,1505.3,327.6,-0.7,1.8,2470.147,13.33,0.059,294.8
2019-08-10T00:46:57,42.805,6.029,-0.019,0.039,0.002,103.0,110.0,99.0,13.4,1505.3,324.5,-0.7,1.8,2470.088,13.33,0.043,334.0
2019-08-10T00:49:58,42.805,6.029,-0.09,0.014,-0.03,103.0,109.0,100.0,13.4,1505.3,325.9,-0.7,1.8,2470.109,13.33,0.091,278.8
2019-08-10T00:52:59,42.805,6.029,-0.025,0.017,-0.003,104.0,108.0,98.0,13.4,1505.3,322.9,-0.7,1.8,2470.101,13.33,0.03,304.2
2019-08-10T00:56:00,42.805,6.029,-0.053,0.031,-0.02,102.0,110.0,98.0,13.4,1505.3,324.9,-0.7,1.8,2470.069,13.33,0.061,300.3
2019-08-10T00:59:01,42.805,6.029,-0.025,0.012,0.015,103.0,110.0,98.0,13.4,1505.3,323.9,-0.7,1.8,2470.108,13.33,0.027,295.6
2019-08-10T01:02:02,42.805,6.029,-0.068,0.018,-0.041,103.0,110.0,98.0,13.3,1505.3,324.7,-0.7,1.8,2470.106,13.33,0.07,284.8
2019-08-10T01:05:03,42.805,6.029,-0.021,0.025,0.015,103.0,108.0,98.0,13.4,1505.3,326.0,-0.7,1.8,2470.115,13.33,0.032,320.0
2019-08-10T01:08:04,42.805,6.029,-0.032,0.024,-0.012,103.0,110.0,99.0,13.3,1505.3,327.8,-0.7,1.9,2470.111,13.33,0.04,306.9
2019-08-10T01:11:05,42.805,6.029,-0.046,0.029,0.002,103.0,111.0,98.0,13.4,1505.3,324.4,-0.7,1.8,2470.096,13.33,0.054,302.2
2019-08-10T01:14:06,42.805,6.029,-0.043,0.038,0.005,102.0,111.0,100.0,13.4,1505.3,324.6,-0.7,1.8,2470.087,13.33,0.057,311.5
2019-08-10T01:17:07,42.805,6.029,-0.046,0.027,0.0,102.0,113.0,98.0,13.4,1505.3,327.9,-0.7,1.8,2470.105,13.33,0.053,300.4
2019-08-10T01:20:08,42.805,6.029,-0.028,0.039,-0.013,102.0,109.0,98.0,13.4,1505.3,326.5,-0.7,1.8,2470.082,13.33,0.048,324.3
2019-08-10T01:23:09,42.805,6.029,-0.056,0.03,-0.014,101.0,112.0,98.0,13.3,1505.3,327.9,-0.7,1.8,2470.127,13.33,0.063,298.2
2019-08-10T01:26:10,42.805,6.029,-0.031,0.039,-0.029,102.0,110.0,99.0,13.4,1505.3,326.4,-0.7,1.8,2470.084,13.33,0.049,321.5
2019-08-10T01:29:12,42.805,6.029,-0.053,0.0,-0.018,102.0,110.0,98.0,13.4,1505.3,327.4,-0.7,1.8,2470.13,13.33,0.053,270.0
2019-08-10T01:32:12,42.805,6.029,-0.044,0.019,-0.033,102.0,110.0,98.0,13.3,1505.3,326.3,-0.7,1.8,2470.103,13.33,0.047,293.4
2019-08-10T01:35:13,42.805,6.029,-0.037,0.025,-0.035,102.0,109.0,99.0,13.3,1505.3,327.7,-0.7,1.8,2470.081,13.33,0.044,304.0
2019-08-10T01:38:15,42.805,6.029,-0.02,0.02,0.005,103.0,109.0,99.0,13.3,1505.3,326.2,-0.7,1.8,2470.096,13.33,0.028,315.0
2019-08-10T01:41:15,42.805,6.029,-0.048,0.027,0.004,102.0,109.0,97.0,13.4,1505.3,328.1,-0.7,1.9,2470.104,13.33,0.055,299.4
2019-08-10T01:44:16,42.805,6.029,-0.024,0.045,-0.013,101.0,109.0,99.0,13.4,1505.3,324.2,-0.7,1.8,2470.136,13.33,0.051,331.9
2019-08-10T01:47:17,42.805,6.029,-0.072,0.029,0.024,102.0,109.0,99.0,13.4,1505.3,325.1,-0.7,1.8,2470.115,13.33,0.077,291.9
2019-08-10T01:50:18,42.805,6.029,-0.021,0.017,-0.017,104.0,111.0,99.0,13.4,1505.3,324.5,-0.7,1.9,2470.167,13.33,0.027,309.0
2019-08-10T01:53:20,42.805,6.029,-0.028,0.033,0.01,101.0,109.0,98.0,13.3,1505.3,325.7,-0.8,1.8,2470.069,13.33,0.043,319.7
2019-08-10T01:56:20,42.805,6.029,-0.033,0.041,0.009,101.0,110.0,99.0,13.3,1505.3,327.7,-0.7,1.8,2470.139,13.33,0.052,321.2
2019-08-10T01:59:21,42.805,6.029,-0.033,0.039,0.005,102.0,109.0,98.0,13.4,1505.3,326.1,-0.7,1.8,2470.129,13.33,0.051,319.8
2019-08-10T02:02:22,42.805,6.029,-0.039,0.018,-0.018,102.0,111.0,99.0,13.3,1505.3,324.7,-0.7,1.8,2470.093,13.33,0.042,294.8
2019-08-10T02:05:24,42.805,6.029,-0.049,0.049,-0.024,101.0,111.0,99.0,13.4,1505.3,327.0,-0.7,1.9,2470.157,13.33,0.069,315.0
2019-08-10T02:08:24,42.805,6.029,-0.058,0.033,-0.008,101.0,112.0,99.0,13.3,1505.3,324.8,-0.7,1.8,2470.14,13.33,0.066,299.6
2019-08-10T02:11:26,42.805,6.029,-0.042,0.013,-0.014,101.0,111.0,98.0,13.4,1505.3,326.6,-0.7,1.8,2470.125,13.33,0.043,287.2
2019-08-10T02:14:27,42.805,6.029,-0.022,0.042,0.0,101.0,112.0,98.0,13.4,1505.3,324.2,-0.7,1.8,2470.179,13.33,0.047,332.4
2019-08-10T02:17:28,42.805,6.029,-0.041,0.048,-0.005,101.0,113.0,98.0,13.3,1505.3,327.8,-0.7,1.8,2470.153,13.33,0.063,319.5
2019-08-10T02:20:29,42.805,6.029,-0.029,0.026,-0.014,102.0,111.0,98.0,13.4,1505.3,326.4,-0.7,1.8,2470.107,13.33,0.038,311.9
2019-08-10T02:23:30,42.805,6.029,-0.034,0.023,-0.015,101.0,111.0,98.0,13.4,1505.3,325.1,-0.7,1.8,2470.18,13.33,0.041,304.1
2019-08-10T02:26:31,42.805,6.029,-0.039,0.05,0.027,100.0,110.0,98.0,13.3,1505.3,326.5,-0.7,1.8,2470.149,13.33,0.063,322.0
2019-08-10T02:29:32,42.805,6.029,0.0,0.024,-0.001,101.0,110.0,99.0,13.4,1505.3,325.9,-0.7,1.8,2470.113,13.33,0.024,0.0
2019-08-10T02:32:33,42.805,6.029,-0.036,0.039,-0.015,102.0,111.0,99.0,13.3,1505.3,325.4,-0.7,1.9,2470.104,13.33,0.053,317.3
2019-08-10T02:35:34,42.805,6.029,-0.025,0.012,0.011,103.0,109.0,99.0,13.4,1505.3,324.4,-0.7,1.8,2470.101,13.33,0.027,295.6
2019-08-10T02:38:35,42.805,6.029,-0.026,0.027,-0.006,101.0,110.0,99.0,13.4,1505.3,325.0,-0.7,1.8,2470.131,13.33,0.037,316.1
2019-08-10T02:41:36,42.805,6.029,-0.014,0.018,-0.038,103.0,110.0,98.0,13.3,1505.3,326.2,-0.7,1.9,2470.148,13.33,0.022,322.1
2019-08-10T02:44:37,42.805,6.029,-0.057,0.031,-0.048,101.0,109.0,99.0,13.3,1505.3,328.4,-0.7,1.8,2470.113,13.33,0.064,298.5
2019-08-10T02:47:38,42.805,6.029,-0.022,0.028,-0.034,103.0,109.0,99.0,13.3,1505.3,327.5,-0.7,1.8,2470.159,13.33,0.035,321.8
2019-08-10T02:50:39,42.805,6.029,-0.049,0.018,-0.015,103.0,109.0,98.0,13.4,1505.3,324.1,-0.7,1.8,2470.15,13.33,0.052,290.2
2019-08-10T02:53:40,42.805,6.029,-0.044,0.03,-0.016,102.0,110.0,99.0,13.4,1505.3,327.1,-0.8,1.8,2470.14,13.33,0.053,304.3
2019-08-10T02:56:41,42.805,6.029,-0.02,0.032,-0.007,102.0,110.0,98.0,13.4,1505.3,326.4,-0.7,1.8,2470.129,13.33,0.037,328.0
2019-08-10T02:59:42,42.805,6.029,-0.024,0.015,-0.023,102.0,109.0,99.0,13.4,1505.3,324.3,-0.7,1.9,2470.152,13.33,0.028,302.0
2019-08-10T03:02:43,42.805,6.029,-0.023,0.045,0.007,101.0,108.0,99.0,13.4,1505.3,326.3,-0.7,1.8,2470.125,13.33,0.05,332.9
2019-08-10T03:05:44,42.805,6.029,-0.023,0.023,-0.025,101.0,109.0,98.0,13.4,1505.3,325.5,-0.8,1.8,2470.152,13.33,0.032,315.0
2019-08-10T03:08:45,42.805,6.029,-0.03,0.021,-0.034,101.0,110.0,98.0,13.4,1505.3,326.9,-0.7,1.9,2470.081,13.33,0.036,305.0
2019-08-10T03:11:46,42.805,6.029,-0.026,0.024,-0.05,103.0,109.0,98.0,13.4,1505.3,328.0,-0.7,1.9,2470.088,13.33,0.035,312.7
2019-08-10T03:14:47,42.805,6.029,-0.032,0.008,-0.008,102.0,108.0,99.0,13.4,1505.3,324.4,-0.7,1.8,2470.071,13.33,0.032,284.0
2019-08-10T03:17:48,42.805,6.029,-0.019,0.015,-0.016,100.0,111.0,97.0,13.4,1505.3,323.5,-0.7,1.9,2470.178,13.33,0.024,308.3
2019-08-10T03:20:49,42.805,6.029,-0.041,0.012,-0.016,102.0,111.0,98.0,13.4,1505.3,327.0,-0.7,1.8,2470.114,13.33,0.042,286.3
2019-08-10T03:23:50,42.805,6.029,-0.045,0.027,-0.032,102.0,110.0,98.0,13.4,1505.3,325.2,-0.7,1.9,2470.114,13.33,0.052,301.0
2019-08-10T03:26:51,42.805,6.029,-0.047,0.038,-0.046,102.0,109.0,98.0,13.4,1505.3,327.9,-0.7,1.8,2470.129,13.33,0.06,309.0
2019-08-10T03:29:52,42.805,6.029,-0.073,0.024,-0.047,102.0,108.0,98.0,13.4,1505.3,326.6,-0.7,1.9,2470.104,13.33,0.076,288.2
2019-08-10T03:32:53,42.805,6.029,-0.037,0.01,-0.024,101.0,107.0,101.0,13.4,1505.3,328.4,-0.7,1.8,2470.139,13.33,0.038,285.1
2019-08-10T03:35:54,42.805,6.029,-0.041,0.001,-0.032,103.0,106.0,99.0,13.3,1505.3,326.5,-0.7,1.8,2470.116,13.33,0.041,271.4
2019-08-10T03:38:55,42.805,6.029,-0.044,0.029,-0.049,103.0,107.0,98.0,13.4,1505.3,328.4,-0.8,1.8,2470.133,13.33,0.052,303.4
2019-08-10T03:41:56,42.805,6.029,-0.051,0.023,-0.031,102.0,109.0,98.0,13.3,1505.3,323.6,-0.7,1.8,2470.11,13.33,0.055,294.3
2019-08-10T03:44:57,42.805,6.029,-0.035,0.036,-0.045,103.0,110.0,98.0,13.3,1505.3,325.1,-0.7,1.8,2470.106,13.33,0.05,315.8
2019-08-10T03:47:58,42.805,6.029,-0.052,0.021,-0.02,100.0,108.0,98.0,13.4,1505.3,325.9,-0.7,1.8,2470.145,13.33,0.056,292.0
2019-08-10T03:50:59,42.805,6.029,-0.048,0.001,-0.045,101.0,109.0,98.0,13.4,1505.3,323.6,-0.7,1.8,2470.096,13.33,0.048,271.2
2019-08-10T03:54:00,42.805,6.029,-0.085,0.02,-0.039,103.0,107.0,98.0,13.4,1505.3,325.0,-0.7,1.8,2470.12,13.33,0.087,283.2
2019-08-10T03:57:01,42.805,6.029,-0.017,0.018,-0.042,103.0,106.0,98.0,13.4,1505.3,325.9,-0.7,1.8,2470.088,13.33,0.024,316.6
2019-08-10T04:00:02,42.805,6.029,-0.066,0.031,-0.037,101.0,110.0,97.0,13.4,1505.3,323.2,-0.7,1.8,2470.074,13.33,0.072,295.2
2019-08-10T04:03:03,42.805,6.029,-0.036,0.049,-0.005,101.0,109.0,99.0,13.4,1505.3,328.1,-0.7,1.8,2470.106,13.33,0.06,323.7
2019-08-10T04:06:04,42.805,6.029,-0.032,0.004,-0.057,101.0,110.0,98.0,13.3,1505.3,325.8,-0.7,1.8,2470.097,13.33,0.032,277.1
2019-08-10T04:09:05,42.805,6.029,0.032,0.028,0.023,100.0,108.0,99.0,13.4,1505.3,325.0,-0.7,1.9,2470.16,13.33,0.042,48.8
2019-08-10T04:12:06,42.805,6.029,-0.004,0.028,0.007,101.0,108.0,99.0,13.4,1505.3,324.7,-0.7,1.8,2470.142,13.33,0.028,351.9
2019-08-10T04:15:07,42.805,6.029,0.005,0.027,0.002,101.0,108.0,99.0,13.3,1505.3,327.1,-0.7,1.8,2470.126,13.33,0.027,10.5
2019-08-10T04:18:08,42.805,6.029,-0.003,-0.005,0.011,102.0,107.0,99.0,13.3,1505.3,324.9,-0.7,1.9,2470.091,13.33,0.005,211.0
2019-08-10T04:21:09,42.805,6.029,-0.022,0.041,0.001,103.0,107.0,98.0,13.4,1505.3,324.4,-0.7,1.8,2470.102,13.33,0.046,331.8
2019-08-10T04:24:10,42.805,6.029,-0.037,0.022,-0.031,103.0,107.0,98.0,13.4,1505.3,326.5,-0.7,1.9,2470.088,13.33,0.043,300.7
2019-08-10T04:27:11,42.805,6.029,-0.048,0.013,-0.028,101.0,107.0,99.0,13.4,1505.3,324.1,-0.7,1.9,2470.096,13.33,0.049,285.2
2019-08-10T04:30:12,42.805,6.029,-0.065,0.022,-0.076,100.0,110.0,99.0,13.3,1505.3,325.6,-0.7,1.8,2470.112,13.33,0.068,288.7
2019-08-10T04:33:13,42.805,6.029,-0.039,0.027,-0.013,102.0,107.0,98.0,13.4,1505.3,326.7,-0.7,1.8,2470.111,13.33,0.047,304.7
2019-08-10T04:36:14,42.805,6.029,-0.015,0.003,-0.014,101.0,107.0,99.0,13.4,1505.3,328.2,-0.7,1.8,2470.123,13.33,0.015,281.3
2019-08-10T04:39:15,42.805,6.029,-0.068,0.012,-0.031,100.0,107.0,99.0,13.4,1505.3,324.2,-0.7,1.8,2470.121,13.33,0.069,280.0
2019-08-10T04:42:16,42.805,6.029,-0.046,0.019,-0.027,99.0,107.0,98.0,13.4,1505.3,325.3,-0.7,1.8,2470.142,13.33,0.049,292.4
2019-08-10T04:45:17,42.805,6.029,-0.026,0.035,-0.011,102.0,107.0,97.0,13.4,1505.3,325.2,-0.7,1.9,2470.092,13.33,0.043,323.4
2019-08-10T04:48:18,42.805,6.029,-0.011,0.017,-0.004,99.0,108.0,97.0,13.4,1505.3,327.5,-0.7,1.8,2470.081,13.33,0.02,327.1
2019-08-10T04:51:19,42.805,6.029,-0.005,0.039,-0.019,100.0,106.0,97.0,13.4,1505.3,324.2,-0.7,1.8,2470.131,13.33,0.039,352.7
2019-08-10T04:54:20,42.805,6.029,-0.035,0.001,-0.029,101.0,107.0,98.0,13.4,1505.3,322.8,-0.7,1.8,2470.118,13.33,0.035,271.6
2019-08-10T04:57:21,42.805,6.029,-0.011,0.013,0.001,100.0,107.0,99.0,13.4,1505.3,326.0,-0.7,1.8,2470.111,13.33,0.017,319.8
2019-08-10T05:00:22,42.805,6.029,-0.025,0.026,-0.039,101.0,107.0,98.0,13.4,1505.3,328.1,-0.7,1.9,2470.115,13.33,0.036,316.1
2019-08-10T05:03:23,42.805,6.029,-0.031,0.038,-0.022,103.0,107.0,97.0,13.4,1505.3,326.0,-0.7,1.8,2470.111,13.33,0.049,320.8
2019-08-10T05:06:24,42.805,6.029,-0.014,0.012,-0.011,99.0,108.0,99.0,13.4,1505.3,326.0,-0.7,1.8,2470.12,13.33,0.018,310.6
2019-08-10T05:09:25,42.805,6.029,-0.022,0.034,-0.004,100.0,107.0,97.0,13.4,1505.3,324.9,-0.7,1.8,2470.159,13.33,0.04,327.1
2019-08-10T05:12:26,42.805,6.029,-0.042,0.028,-0.04,104.0,107.0,99.0,13.4,1505.3,328.3,-0.7,1.8,2470.098,13.33,0.05,303.7
2019-08-10T05:15:27,42.805,6.029,-0.015,0.012,-0.054,102.0,107.0,99.0,13.3,1505.3,326.1,-0.7,1.9,2470.076,13.33,0.019,308.7
2019-08-10T05:18:28,42.805,6.029,-0.019,0.003,0.003,102.0,106.0,99.0,13.4,1505.3,325.2,-0.7,1.8,2470.148,13.33,0.019,279.0
2019-08-10T05:21:29,42.805,6.029,-0.051,0.036,-0.041,102.0,107.0,100.0,13.3,1505.3,323.3,-0.7,1.8,2470.112,13.33,0.062,305.2
2019-08-10T05:24:30,42.805,6.029,-0.051,-0.001,-0.025,102.0,107.0,98.0,13.4,1505.3,325.9,-0.7,1.8,2470.088,13.33,0.051,268.9
2019-08-10T05:27:31,42.805,6.029,-0.013,0.015,-0.014,102.0,106.0,97.0,13.3,1505.3,325.9,-0.7,1.8,2470.071,13.33,0.019,319.1
2019-08-10T05:30:32,42.805,6.029,-0.03,0.026,-0.013,101.0,107.0,98.0,13.3,1505.3,324.9,-0.7,1.8,2470.115,13.33,0.039,310.9
2019-08-10T05:33:33,42.805,6.029,-0.041,0.0,-0.048,100.0,107.0,98.0,13.4,1505.3,327.9,-0.7,1.8,2470.093,13.33,0.041,270.0
2019-08-10T05:36:34,42.805,6.029,-0.065,0.006,-0.064,103.0,107.0,98.0,13.4,1505.3,324.0,-0.7,1.9,2470.118,13.33,0.065,275.3
2019-08-10T05:39:35,42.805,6.029,-0.032,0.03,-0.006,102.0,107.0,101.0,13.4,1505.3,328.3,-0.7,1.8,2470.076,13.33,0.043,313.1
2019-08-10T05:42:36,42.805,6.029,-0.027,0.025,-0.032,101.0,107.0,99.0,13.4,1505.3,324.2,-0.7,1.8,2470.093,13.33,0.036,312.8
2019-08-10T05:45:37,42.805,6.029,0.006,0.009,-0.039,101.0,107.0,97.0,13.4,1505.3,328.3,-0.7,1.8,2470.104,13.33,0.01,33.7
2019-08-10T05:48:38,42.805,6.029,-0.03,0.011,-0.018,100.0,107.0,98.0,13.4,1505.3,322.9,-0.7,1.8,2470.091,13.33,0.031,290.1
2019-08-10T05:51:39,42.805,6.029,-0.024,0.032,-0.042,101.0,106.0,98.0,13.4,1505.3,328.2,-0.7,1.8,2470.127,13.33,0.04,323.1
2019-08-10T05:54:40,42.805,6.029,-0.005,0.019,-0.007,103.0,106.0,98.0,13.3,1505.3,325.7,-0.7,1.9,2470.077,13.33,0.019,345.3
2019-08-10T05:57:41,42.805,6.029,-0.023,0.013,-0.039,102.0,107.0,97.0,13.4,1505.3,325.0,-0.7,1.8,2470.088,13.33,0.026,299.5
2019-08-10T06:00:42,42.805,6.029,-0.035,0.026,-0.051,101.0,106.0,99.0,13.4,1505.3,327.0,-0.7,1.8,2470.067,13.33,0.043,306.6
2019-08-10T06:03:43,42.805,6.029,-0.017,0.017,-0.022,100.0,106.0,98.0,13.4,1505.3,324.4,-0.7,1.8,2470.111,13.33,0.024,315.0
2019-08-10T06:06:44,42.805,6.029,-0.035,0.019,-0.05,101.0,105.0,97.0,13.4,1505.3,322.9,-0.7,1.8,2470.067,13.33,0.039,298.5
2019-08-10T06:09:45,42.805,6.029,-0.026,0.022,-0.021,100.0,105.0,98.0,13.3,1505.3,325.3,-0.7,1.8,2470.118,13.33,0.034,310.2
2019-08-10T06:12:46,42.805,6.029,-0.051,0.031,-0.036,100.0,106.0,98.0,13.3,1505.3,327.0,-0.7,1.8,2470.097,13.33,0.059,301.3
2019-08-10T06:15:47,42.805,6.029,-0.028,0.009,-0.032,100.0,106.0,97.0,13.4,1505.3,327.6,-0.7,1.8,2470.115,13.33,0.029,287.8
2019-08-10T06:18:48,42.805,6.029,-0.036,0.008,-0.017,101.0,106.0,97.0,13.4,1505.3,325.1,-0.7,1.8,2470.069,13.33,0.036,282.5
2019-08-10T06:21:49,42.805,6.029,-0.008,0.013,0.015,100.0,106.0,98.0,13.4,1505.3,322.8,-0.7,1.8,2470.091,13.33,0.015,328.4
2019-08-10T06:24:50,42.805,6.029,-0.02,0.01,-0.027,101.0,107.0,98.0,13.4,1505.3,324.8,-0.7,1.9,2470.091,13.33,0.022,296.6
2019-08-10T06:27:51,42.805,6.029,-0.005,0.012,-0.02,102.0,106.0,97.0,13.3,1505.3,326.7,-0.7,1.9,2470.044,13.33,0.013,337.4
2019-08-10T06:30:52,42.805,6.029,-0.015,0.009,-0.031,103.0,106.0,97.0,13.4,1505.3,323.3,-0.7,1.8,2470.064,13.33,0.017,301.0
2019-08-10T06:33:53,42.805,6.029,-0.021,0.02,-0.004,100.0,105.0,99.0,13.4,1505.3,324.1,-0.7,1.8,2470.068,13.33,0.028,313.6
2019-08-10T06:36:54,42.805,6.029,-0.029,0.013,-0.024,101.0,105.0,98.0,13.3,1505.3,323.1,-0.7,1.8,2470.072,13.33,0.031,294.1
2019-08-10T06:39:55,42.805,6.029,-0.009,0.022,-0.012,102.0,105.0,97.0,13.4,1505.3,325.3,-0.7,1.8,2470.05,13.33,0.023,337.8
2019-08-10T06:42:56,42.805,6.029,-0.018,0.03,-0.032,102.0,105.0,99.0,13.4,1505.3,325.5,-0.7,1.8,2470.077,13.33,0.034,329.0
2019-08-10T06:45:57,42.805,6.029,-0.005,0.025,-0.036,101.0,107.0,98.0,13.4,1505.3,325.4,-0.8,1.8,2470.128,13.33,0.025,348.7
2019-08-10T06:48:58,42.805,6.029,-0.048,0.013,-0.046,100.0,106.0,99.0,13.4,1505.3,325.6,-0.7,1.8,2470.088,13.33,0.049,285.2
2019-08-10T06:51:59,42.805,6.029,0.0,0.012,0.001,103.0,106.0,98.0,13.3,1505.3,324.5,-0.7,1.9,2470.102,13.33,0.012,0.0
2019-08-10T06:55:00,42.805,6.029,-0.01,0.028,-0.01,101.0,108.0,97.0,13.3,1505.3,323.2,-0.7,1.8,2470.079,13.33,0.029,340.4
2019-08-10T06:58:01,42.805,6.029,-0.035,-0.008,-0.023,100.0,108.0,99.0,13.4,1505.3,324.5,-0.7,1.8,2470.067,13.33,0.035,257.1
2019-08-10T07:01:02,42.805,6.029,-0.035,0.033,-0.011,101.0,106.0,98.0,13.4,1505.3,327.4,-0.7,1.8,2470.065,13.33,0.048,313.3
2019-08-10T07:04:03,42.805,6.029,-0.022,-0.008,-0.021,101.0,105.0,98.0,13.4,1505.3,324.0,-0.7,1.8,2470.079,13.33,0.023,250.0
2019-08-10T07:07:04,42.805,6.029,-0.052,-0.001,-0.011,101.0,104.0,98.0,13.3,1505.3,327.0,-0.7,1.8,2470.069,13.33,0.052,268.9
2019-08-10T07:10:05,42.805,6.029,-0.01,0.0,-0.021,100.0,104.0,97.0,13.3,1505.3,324.2,-0.7,1.8,2470.073,13.33,0.01,270.0
2019-08-10T07:13:06,42.805,6.029,-0.005,-0.002,-0.004,102.0,106.0,98.0,13.3,1505.3,325.2,-0.7,1.8,2470.033,13.33,0.005,248.2
2019-08-10T07:16:07,42.805,6.029,-0.041,0.024,-0.062,101.0,105.0,98.0,13.4,1505.3,323.5,-0.7,1.8,2470.067,13.33,0.047,300.3
2019-08-10T07:19:08,42.805,6.029,0.01,0.009,0.006,102.0,106.0,99.0,13.4,1505.3,327.0,-0.7,1.8,2470.045,13.33,0.013,48.0
2019-08-10T07:22:09,42.805,6.029,0.001,0.0,-0.016,101.0,106.0,97.0,13.3,1505.3,327.2,-0.7,1.9,2470.057,13.33,0.001,90.0
2019-08-10T07:25:10,42.805,6.029,-0.048,0.011,-0.028,100.0,106.0,98.0,13.3,1505.3,324.5,-0.7,1.9,2470.03,13.33,0.049,282.9
2019-08-10T07:28:11,42.805,6.029,-0.02,0.0,-0.045,101.0,107.0,99.0,13.4,1505.3,325.2,-0.7,1.8,2470.06,13.33,0.02,270.0
2019-08-10T07:31:12,42.805,6.029,-0.032,0.014,-0.034,101.0,106.0,97.0,13.4,1505.3,322.8,-0.7,1.8,2470.04,13.33,0.034,293.6
2019-08-10T07:34:13,42.805,6.029,-0.029,0.001,-0.055,101.0,107.0,98.0,13.3,1505.3,325.8,-0.7,1.8,2470.05,13.33,0.029,272.0
2019-08-10T07:37:14,42.805,6.029,0.0,-0.002,0.004,103.0,106.0,98.0,13.4,1505.3,326.0,-0.7,1.8,2470.045,13.33,0.002,180.0
2019-08-10T07:40:15,42.805,6.029,0.0,0.021,0.006,102.0,107.0,97.0,13.4,1505.3,326.0,-0.7,1.9,2470.092,13.33,0.021,0.0
2019-08-10T07:43:16,42.805,6.029,-0.021,0.004,-0.045,99.0,106.0,99.0,13.3,1505.3,326.2,-0.7,1.8,2470.03,13.33,0.021,280.8
2019-08-10T07:46:17,42.805,6.029,-0.005,0.008,0.004,103.0,105.0,99.0,13.4,1505.3,325.8,-0.8,1.8,2470.023,13.33,0.009,328.0
2019-08-10T07:49:18,42.805,6.029,-0.051,0.02,0.001,101.0,104.0,99.0,13.4,1505.3,326.0,-0.7,1.8,2470.024,13.33,0.054,291.4
2019-08-10T07:52:19,42.805,6.029,-0.008,0.006,-0.016,102.0,106.0,98.0,13.3,1505.3,326.4,-0.7,1.8,2470.085,13.33,0.01,306.9
2019-08-10T07:55:20,42.805,6.029,0.001,0.015,0.012,100.0,111.0,99.0,13.4,1505.3,326.5,-0.8,1.9,2470.065,13.33,0.015,3.8
2019-08-10T07:58:21,42.805,6.029,-0.009,-0.001,-0.019,101.0,106.0,99.0,13.4,1505.3,326.1,-0.7,1.8,2470.068,13.33,0.009,263.7
2019-08-10T08:01:22,42.805,6.029,-0.008,0.009,-0.019,102.0,106.0,98.0,13.3,1505.3,326.9,-0.7,1.8,2470.031,13.33,0.012,318.4
2019-08-10T08:04:23,42.805,6.029,-0.02,0.003,-0.024,101.0,107.0,99.0,13.4,1505.3,324.0,-0.7,1.8,2470.065,13.33,0.02,278.5
2019-08-10T08:07:24,42.805,6.029,-0.017,0.014,-0.033,102.0,106.0,98.0,13.4,1505.3,328.1,-0.7,1.9,2470.032,13.33,0.022,309.5
2019-08-10T08:10:25,42.805,6.029,-0.01,0.005,-0.029,101.0,105.0,98.0,13.4,1505.3,328.0,-0.7,1.8,2470.006,13.33,0.011,296.6
2019-08-10T08:13:26,42.805,6.029,-0.034,0.017,0.008,101.0,107.0,97.0,13.4,1505.3,325.7,-0.7,1.8,2470.035,13.33,0.038,296.6
2019-08-10T08:16:27,42.805,6.029,-0.005,0.014,-0.001,101.0,105.0,99.0,13.3,1505.3,322.7,-0.7,1.8,2470.035,13.33,0.014,340.4
2019-08-10T08:19:28,42.805,6.029,-0.019,-0.012,-0.015,102.0,107.0,99.0,13.3,1505.3,325.6,-0.7,1.8,2470.013,13.33,0.022,237.7
2019-08-10T08:22:29,42.805,6.029,0.002,0.002,-0.023,101.0,105.0,98.0,13.3,1505.3,328.4,-0.7,1.8,2470.008,13.33,0.002,45.0
2019-08-10T08:25:30,42.805,6.029,-0.019,0.005,-0.027,102.0,105.0,99.0,13.4,1505.3,325.6,-0.7,1.9,2469.971,13.33,0.019,284.7
2019-08-10T08:28:31,42.805,6.029,-0.015,0.004,-0.03,103.0,103.0,98.0,13.4,1505.3,326.3,-0.7,1.8,2470.021,13.33,0.015,284.9
2019-08-10T08:31:32,42.805,6.029,0.0,0.01,-0.04,101.0,105.0,98.0,13.4,1505.3,324.6,-0.7,1.8,2470.025,13.33,0.01,0.0
2019-08-10T08:34:33,42.805,6.029,0.006,0.015,-0.022,102.0,105.0,97.0,13.4,1505.3,325.3,-0.7,1.8,2470.092,13.33,0.016,21.8
2019-08-10T08:37:34,42.805,6.029,0.014,0.007,-0.017,101.0,106.0,98.0,13.3,1505.3,322.8,-0.7,1.8,2470.006,13.33,0.015,63.4
2019-08-10T08:40:35,42.805,6.029,-0.019,-0.01,-0.023,101.0,107.0,98.0,13.3,1505.3,325.7,-0.7,1.8,2470.052,13.33,0.021,242.2
2019-08-10T08:43:36,42.805,6.029,-0.028,0.002,-0.038,102.0,106.0,99.0,13.4,1505.3,326.7,-0.7,1.8,2470.014,13.33,0.028,274.1
2019-08-10T08:46:37,42.805,6.029,-0.019,0.027,0.0,100.0,107.0,98.0,13.3,1505.3,323.2,-0.7,1.8,2470.081,13.33,0.033,324.9
2019-08-10T08:49:38,42.805,6.029,-0.025,0.012,-0.036,103.0,105.0,98.0,13.3,1505.3,326.6,-0.7,1.9,2470.033,13.33,0.027,295.6
2019-08-10T08:52:39,42.805,6.029,-0.02,0.037,0.008,102.0,107.0,100.0,13.4,1505.3,327.7,-0.7,1.8,2470.051,13.33,0.042,331.6
2019-08-10T08:55:40,42.805,6.029,-0.02,0.0,-0.042,102.0,106.0,98.0,13.4,1505.3,326.9,-0.7,1.8,2470.023,13.33,0.02,270.0
2019-08-10T08:58:41,42.805,6.029,-0.015,0.0,-0.013,101.0,106.0,98.0,13.3,1505.3,324.3,-0.7,1.9,2470.051,13.33,0.015,270.0
2019-08-10T09:01:42,42.805,6.029,-0.02,0.013,-0.019,100.0,106.0,99.0,13.4,1505.3,326.0,-0.7,1.8,2470.022,13.33,0.023,303.0
2019-08-10T09:04:43,42.805,6.029,-0.044,0.006,-0.053,102.0,105.0,97.0,13.3,1505.3,327.1,-0.7,1.8,2470.018,13.33,0.044,277.8
2019-08-10T09:07:44,42.805,6.029,-0.022,0.019,-0.007,102.0,104.0,98.0,13.4,1505.3,324.0,-0.7,1.8,2470.054,13.33,0.029,310.8
2019-08-10T09:10:45,42.805,6.029,-0.025,0.009,-0.008,101.0,105.0,99.0,13.4,1505.3,327.3,-0.7,1.8,2470.037,13.33,0.026,289.8
2019-08-10T09:13:46,42.805,6.029,-0.009,0.018,-0.019,101.0,104.0,99.0,13.4,1505.3,325.6,-0.7,1.8,2470.017,13.33,0.02,333.4
2019-08-10T09:16:47,42.805,6.029,-0.019,0.007,0.017,102.0,106.0,97.0,13.4,1505.3,323.7,-0.7,1.9,2470.03,13.33,0.02,290.2
2019-08-10T09:19:48,42.805,6.029,0.017,-0.008,-0.008,102.0,105.0,98.0,13.4,1505.3,326.5,-0.7,1.8,2470.041,13.33,0.018,115.2
2019-08-10T09:22:49,42.805,6.029,-0.033,0.016,-0.019,102.0,104.0,98.0,13.4,1505.3,327.0,-0.7,1.8,2469.998,13.33,0.036,295.9
2019-08-10T09:25:50,42.805,6.029,-0.019,0.016,-0.016,104.0,104.0,97.0,13.4,1505.3,323.1,-0.7,1.8,2470.031,13.33,0.024,310.1
2019-08-10T09:28:51,42.805,6.029,-0.023,-0.012,-0.002,99.0,106.0,99.0,13.3,1505.3,327.2,-0.7,1.8,2470.04,13.33,0.025,242.4
2019-08-10T09:31:52,42.805,6.029,-0.025,0.002,-0.025,102.0,104.0,99.0,13.4,1505.3,324.8,-0.7,1.8,2470.049,13.33,0.025,274.6